Weather in Novaya Bryan

Russia / Republic of Buryatia     51°42′43″N   108°15′29″E
temp.,
°C
wind,
m/s
gust,
m/s
humid.,
%
clouds,
%
prec.,
mm/h
press.,
hPa
HPBL,
m
9 may, sun
sun923:00+3wsw22690 0.0 101228
02:00+2wsw228293 0.0 101334
05:00+2wsw2282100 0.0 101330
08:00+7w2666100 0.0 1012664
11:00+10wnw455696 0.0 10101303
14:00+13wnw5742100 0.2 10081883
17:00+13nw3540100 0.1 10061922
20:00+9n0053100 0.1 100710
10 may, mon
mon1023:00+6nnw1167100 0.0 100810
02:00+5wsw2290100 1.3 1008101
05:00+4w3694100 4.4 1009576
08:00+4wnw2795100 4.4 1010513
11:00+6nw4676100 0.1 1011827
14:00+10wnw6648100 0.1 10101876
17:00+9wnw674869 0.0 10101481
20:00+5wnw3760100 0.0 1012285
11 may, tue
tue1123:00+2w388465 0.0 1014284
02:00+1w2393100 0.0 101493
05:00+2w3890100 0.0 1013589
08:00+2w2796100 1.4 1014512
11:00+4wnw3688100 0.1 1014617
14:00+8wnw576648 0.2 10131136
17:00+11wnw684468 0.2 10111939
20:00+7wnw49715 0.3 1014360
12 may, wed
wed1223:00+3w23910 0.0 101641
02:00+2wsw22940 0.0 101634
05:00+1wsw22940 0.0 101631
08:00+8w24622 0.0 1013438
11:00+13w453950 0.0 10102131
14:00+16w4728100 0.0 10083233
17:00+15wnw482560 0.0 10062955
20:00+11nw5104610 0.0 1008538
13 may, thu
thu1323:00+5w227298 0.0 101116
02:00+4wnw2285100 0.0 101366
05:00+3wnw2684100 0.0 1014276
08:00+5nw58465 0.0 10161628
11:00+8nnw68255 0.0 10152220
14:00+10nnw682464 0.0 10152617
17:00+10n582289 0.0 10162854
20:00+6n22340 0.0 101734